Wind_Speed
6 6 5 5 5 5 6 6 5 5 5 6 6 7 8 9 10 8 10 11 12 13 14 15 13 13 13 13 14 16 18 17 16 15 15 14 13 12 11 10 9 8 7
4 4 4 5 5 5 4 4 5 5 5 5 5 6 7 7 8 9 9 10 11 11 13 14 14 13 14 15 14 14 16 17 18 17 16 16 15 15 14 13 11 10 9
3 3 4 4 4 4 4 4 4 4 4 4 4 4 5 6 7 8 8 9 9 10 11 12 14 14 14 14 15 15 16 16 17 19 18 17 17 17 16 15 14 13 11
2 3 3 3 3 3 4 4 4 4 4 4 4 4 4 5 6 6 7 8 8 9 10 11 13 14 14 15 15 15 16 16 17 18 19 19 19 19 19 18 17 16 15
1 2 2 2 3 4 4 4 4 4 4 5 4 4 4 5 6 7 7 7 8 9 9 10 11 13 14 15 16 16 16 17 17 19 20 20 20 20 20 21 19 18 17
0 1 2 2 3 4 4 4 5 5 5 5 5 5 5 5 5 6 7 8 8 8 9 10 11 11 12 13 15 15 16 16 17 18 20 21 20 20 22 23 22 21 20
1 1 2 3 4 4 5 5 6 6 6 6 6 6 6 6 6 7 7 8 8 9 9 10 11 11 11 12 13 14 14 15 16 16 18 20 21 21 22 22 23 23 23
2 2 2 3 4 5 5 6 6 7 8 8 8 8 7 7 7 7 7 8 8 9 9 10 11 11 11 12 12 13 13 14 15 16 17 18 20 22 22 23 23 24 25
2 2 1 2 3 4 5 6 6 7 8 8 9 8 8 9 9 9 9 9 9 9 10 10 11 11 12 12 12 13 13 14 15 16 17 17 19 21 22 23 25 24 25
3 2 1 1 1 2 3 4 5 7 8 8 9 9 10 10 10 9 9 10 10 10 11 11 11 11 12 13 13 14 14 14 15 16 18 18 19 20 22 23 25 26 26
4 3 2 1 1 2 3 5 6 7 8 9 9 10 11 11 11 11 11 11 11 11 12 12 12 12 13 13 14 14 15 15 16 17 18 18 19 19 21 23 25 26 27
5 4 4 3 3 4 5 6 7 9 9 10 10 11 12 13 13 13 13 12 12 12 13 14 14 14 14 14 15 15 16 17 17 18 19 19 20 21 21 22 23 25 27
7 6 6 6 6 7 8 9 9 10 11 11 12 13 13 14 14 14 14 14 14 14 14 15 15 15 15 15 16 17 17 18 19 20 20 21 21 22 23 24 24 25 27
9 9 9 9 9 10 10 11 12 13 13 14 15 16 16 16 16 16 16 16 16 16 15 16 16 17 18 17 18 18 19 19 20 21 22 23 23 24 25 25 26 26 27
11 11 11 12 12 13 14 15 15 16 17 17 18 18 18 18 18 18 18 18 19 18 17 17 17 18 19 19 20 20 20 21 21 22 23 24 25 26 27 27 28 28 29
14 14 14 15 15 16 17 18 19 19 20 20 20 21 21 21 21 21 21 21 21 21 21 20 19 19 20 20 20 22 22 22 23 24 24 25 25 26 27 29 30 31 31
17 17 17 17 18 19 20 21 22 22 23 23 23 23 23 23 23 23 23 23 23 23 23 23 22 22 22 23 23 23 23 24 24 25 25 26 26 26 27 28 30 31 32
19 19 20 20 21 21 22 23 24 24 25 25 25 25 25 26 26 26 26 26 26 25 25 25 25 25 24 25 25 26 26 26 26 26 27 27 27 28 28 29 29 30 32
21 21 22 23 23 24 25 26 26 26 27 27 27 27 27 27 28 28 28 28 28 28 28 27 27 27 27 27 27 27 28 28 28 28 28 28 29 29 29 29 30 31 32
23 24 24 25 26 27 27 28 28 28 28 29 29 29 29 29 30 30 30 30 31 30 30 30 30 30 30 30 30 30 29 29 29 30 30 29 29 30 31 31 31 32 33
25 26 26 27 28 28 29 30 31 31 31 31 31 31 31 32 32 32 32 32 32 32 32 32 32 33 33 33 32 32 31 31 31 32 32 31 31 31 32 32 32 32 33
28 28 29 29 30 30 31 32 33 33 33 33 33 33 33 33 34 34 34 34 34 34 34 35 35 35 36 35 35 35 35 34 33 34 33 33 34 33 33 33 33 33 34
30 30 31 31 32 32 34 34 35 35 35 35 35 35 35 36 36 36 36 37 37 38 38 38 38 38 38 38 37 37 37 36 35 36 36 35 35 35 35 34 34 34 35
32 32 33 33 34 35 36 37 38 39 38 37 38 38 38 38 39 40 40 40 40 40 40 41 41 40 40 40 41 40 39 39 38 38 39 38 37 37 37 36 35 35 35
35 36 37 37 37 37 38 39 41 41 39 39 40 41 41 41 42 44 44 44 44 43 44 45 44 43 43 43 44 44 43 43 41 40 41 41 39 39 38 38 38 37 36
36 37 38 38 39 39 39 40 41 41 41 40 40 41 42 43 44 45 46 47 47 47 48 48 47 47 46 46 46 47 47 46 45 43 43 44 42 41 40 39 39 39 38
Wind_Direction
289 287 293 298 299 299 298 297 293 294 294 284 279 271 269 264 259 261 254 254 250 250 252 252 253 253 252 251 250 246 242 240 238 238 237 234 234 235 235 232 231 230 230
298 301 309 314 312 308 306 309 308 306 302 298 290 281 274 268 270 266 262 259 259 256 253 254 255 258 255 254 253 251 246 242 241 239 239 238 236 235 236 234 234 233 232
309 320 324 326 328 330 328 330 331 326 320 315 307 301 290 284 285 281 272 267 266 259 256 257 257 260 261 257 255 254 251 248 245 241 239 240 239 237 235 235 236 235 234
318 337 342 353 2 360 359 357 355 352 345 337 328 321 313 306 300 296 283 276 273 268 265 265 263 262 262 261 260 257 255 253 248 245 243 242 242 240 237 236 237 237 236
327 356 8 20 21 17 16 14 11 11 4 358 350 338 324 312 313 305 300 294 287 282 276 277 277 271 267 263 259 261 260 256 252 247 245 244 245 243 240 238 238 238 238
69 38 38 41 35 30 29 30 26 28 23 15 9 359 344 324 319 312 307 302 298 291 283 282 283 280 276 271 263 263 265 260 257 253 246 244 246 246 244 241 239 240 240
138 94 77 61 50 44 40 39 36 34 32 26 18 10 359 346 335 323 315 310 303 297 292 288 283 282 282 280 275 267 267 265 261 257 250 246 247 247 247 245 242 241 242
153 113 85 69 57 50 48 46 41 34 28 23 18 13 3 354 349 341 333 322 316 309 303 297 292 286 286 285 282 276 272 271 266 262 258 253 251 250 249 248 246 246 245
166 147 121 81 59 49 45 41 36 27 20 15 12 8 2 357 352 347 341 331 322 317 311 303 300 294 291 288 284 283 280 276 274 268 266 262 255 251 251 249 247 247 246
183 180 166 111 60 35 23 16 10 5 2 0 359 358 356 353 350 343 337 330 325 321 317 313 306 299 295 292 289 284 281 280 278 273 270 268 263 257 255 255 252 249 249
205 211 218 227 284 325 335 340 339 342 346 348 348 347 347 346 345 341 335 329 323 320 318 316 312 306 301 297 291 287 284 282 280 276 275 272 269 265 262 259 256 252 251
224 235 245 253 271 291 305 316 320 325 330 333 335 336 336 336 336 336 334 330 324 319 316 315 312 308 304 300 295 290 286 283 280 277 276 275 272 268 266 263 261 257 254
237 246 255 263 275 285 295 303 310 314 318 321 323 324 325 327 327 327 328 327 324 321 317 314 310 306 303 300 296 293 289 285 281 277 275 275 273 271 268 265 263 262 259
245 252 260 266 274 282 290 296 300 305 309 313 315 316 317 319 319 318 319 319 318 318 316 312 309 306 303 299 297 295 292 288 284 281 278 275 274 272 271 268 265 263 260
252 256 262 268 275 281 288 292 295 299 302 305 308 310 310 311 313 312 312 312 311 310 310 309 307 305 302 300 297 295 293 290 287 285 282 279 276 273 271 269 267 265 263
258 261 266 272 277 281 286 289 292 295 297 300 302 304 304 305 305 305 306 306 306 307 307 306 304 302 299 298 295 293 292 290 288 286 284 282 279 276 273 271 268 266 264
263 267 270 274 278 282 286 288 290 293 295 296 298 299 300 300 300 300 301 301 301 301 302 303 302 300 297 296 295 293 291 290 288 287 286 284 282 279 277 274 272 269 266
266 270 273 276 279 282 285 287 289 291 293 294 295 295 296 296 297 297 297 297 296 296 297 298 299 298 296 294 294 292 291 290 288 287 286 285 283 281 279 277 275 272 269
269 272 275 278 280 282 284 286 288 289 290 291 292 292 292 293 294 294 294 294 294 293 293 293 294 294 294 293 292 291 290 289 287 286 285 284 283 282 281 279 277 275 272
271 273 276 278 280 282 283 285 286 287 288 288 289 289 289 290 290 291 291 292 292 291 291 291 291 292 292 292 291 290 289 288 287 286 284 283 282 281 281 279 279 277 275
273 274 276 278 279 280 282 283 284 285 285 286 286 286 287 288 288 288 289 290 290 289 289 290 290 290 290 289 288 288 288 287 287 285 284 283 281 280 280 279 279 278 277
273 275 275 276 278 280 281 281 282 283 283 284 284 285 286 287 288 289 288 289 289 289 288 289 289 289 288 288 287 287 287 287 287 285 284 283 282 280 278 278 278 278 278
273 275 275 275 277 279 280 280 280 281 282 283 283 283 284 286 286 286 286 287 288 288 288 288 288 288 287 287 286 286 287 287 287 286 285 283 282 281 279 278 278 277 276
274 275 276 276 278 279 279 280 280 281 281 282 282 283 284 285 285 285 286 285 286 286 286 286 287 287 286 286 285 285 286 286 287 286 285 284 282 280 279 278 277 277 276
280 279 277 278 278 279 279 280 281 282 283 283 282 283 284 285 284 285 286 286 286 286 286 285 285 284 284 284 284 284 285 285 285 285 284 283 281 280 279 278 277 276 276
281 280 280 280 281 282 283 282 283 283 284 284 285 285 284 285 285 285 285 285 285 286 285 285 285 284 283 283 283 283 283 283 283 282 282 281 280 279 277 277 276 276 275
Height
5882 5882 5882 5881 5881 5880 5880 5880 5879 5879 5879 5879 5879 5878 5878 5879 5879 5879 5879 5880 5882 5884 5886 5887 5888 5890 5891 5892 5893 5895 5896 5898 5899 5901 5902 5904 5906 5907 5909 5910 5911 5913 5914
5881 5881 5881 5880 5880 5879 5879 5879 5878 5878 5878 5878 5877 5877 5877 5877 5878 5878 5879 5879 5881 5882 5883 5884 5886 5887 5888 5889 5891 5892 5893 5895 5897 5898 5900 5901 5903 5905 5906 5908 5910 5911 5912
5880 5880 5880 5879 5879 5879 5878 5878 5877 5877 5877 5876 5876 5876 5876 5876 5877 5877 5877 5878 5879 5879 5881 5882 5883 5884 5885 5886 5888 5889 5890 5892 5893 5895 5897 5899 5900 5902 5904 5905 5907 5909 5910
5879 5879 5879 5879 5879 5878 5878 5877 5877 5876 5876 5876 5875 5875 5875 5875 5875 5876 5876 5876 5877 5878 5878 5879 5880 5881 5882 5883 5885 5886 5887 5889 5890 5892 5894 5895 5897 5899 5901 5902 5904 5906 5908
5879 5879 5879 5879 5878 5878 5878 5877 5877 5876 5876 5875 5875 5875 5875 5874 5874 5875 5875 5875 5876 5876 5877 5877 5877 5878 5879 5880 5881 5882 5884 5885 5887 5888 5890 5892 5893 5895 5897 5899 5901 5903 5905
5878 5879 5879 5879 5878 5878 5878 5877 5877 5876 5876 5875 5875 5875 5874 5874 5874 5874 5874 5874 5874 5874 5875 5875 5875 5876 5876 5877 5878 5879 5880 5881 5882 5884 5885 5887 5889 5891 5893 5895 5897 5900 5901
5878 5879 5879 5879 5879 5878 5878 5877 5877 5876 5876 5875 5875 5875 5874 5874 5873 5873 5873 5873 5873 5873 5873 5873 5873 5874 5874 5874 5874 5875 5876 5877 5878 5879 5881 5883 5884 5887 5889 5891 5893 5895 5897
5878 5878 5879 5879 5879 5879 5878 5878 5878 5877 5876 5876 5875 5875 5874 5874 5873 5872 5871 5871 5871 5871 5871 5871 5871 5871 5871 5872 5872 5872 5873 5874 5875 5876 5877 5879 5880 5882 5884 5886 5888 5891 5893
5877 5878 5878 5879 5879 5879 5879 5879 5878 5878 5877 5876 5875 5875 5874 5873 5872 5871 5870 5870 5870 5869 5869 5869 5869 5868 5869 5869 5869 5870 5870 5871 5871 5872 5873 5874 5876 5877 5879 5881 5883 5885 5887
5877 5877 5878 5879 5879 5879 5879 5879 5878 5878 5877 5876 5875 5874 5873 5872 5872 5871 5870 5869 5868 5867 5867 5867 5866 5866 5866 5866 5866 5866 5867 5867 5868 5868 5869 5870 5871 5873 5874 5876 5878 5880 5882
5876 5877 5877 5878 5878 5878 5878 5878 5878 5877 5877 5876 5875 5874 5873 5872 5870 5870 5869 5868 5867 5866 5865 5864 5864 5863 5863 5863 5863 5863 5863 5864 5864 5865 5865 5866 5867 5868 5869 5870 5872 5874 5876
5875 5876 5876 5877 5877 5877 5877 5877 5877 5876 5876 5875 5874 5873 5872 5871 5869 5868 5867 5866 5865 5864 5863 5862 5861 5860 5860 5860 5859 5859 5859 5859 5860 5860 5861 5861 5862 5863 5864 5865 5866 5868 5870
5874 5874 5875 5875 5875 5876 5876 5876 5875 5875 5874 5873 5872 5871 5870 5869 5867 5866 5865 5864 5863 5862 5860 5859 5858 5857 5857 5856 5856 5855 5855 5855 5855 5855 5855 5856 5856 5857 5858 5859 5860 5861 5863
5871 5872 5873 5873 5873 5874 5874 5874 5873 5873 5872 5871 5870 5869 5868 5867 5865 5864 5862 5861 5860 5859 5858 5857 5855 5854 5853 5852 5852 5851 5850 5850 5849 5849 5850 5850 5850 5851 5852 5852 5853 5855 5856
5869 5869 5870 5870 5871 5871 5871 5871 5870 5870 5869 5868 5867 5866 5865 5864 5862 5861 5859 5858 5857 5855 5854 5853 5852 5850 5849 5848 5847 5846 5846 5845 5844 5844 5844 5844 5844 5844 5845 5845 5846 5847 5848
5866 5866 5867 5867 5867 5867 5867 5867 5867 5866 5865 5864 5863 5862 5861 5860 5858 5857 5856 5854 5852 5851 5850 5849 5848 5846 5844 5843 5842 5841 5840 5839 5839 5838 5837 5837 5837 5837 5837 5837 5838 5839 5840
5862 5862 5863 5863 5863 5863 5863 5862 5862 5861 5860 5859 5858 5857 5856 5855 5853 5852 5851 5849 5848 5846 5845 5843 5842 5841 5839 5838 5837 5835 5834 5833 5832 5831 5831 5830 5830 5829 5829 5829 5830 5830 5831
5857 5857 5858 5858 5858 5858 5857 5857 5856 5856 5855 5854 5853 5851 5850 5849 5848 5846 5845 5843 5842 5841 5839 5837 5836 5835 5834 5832 5830 5829 5828 5827 5826 5825 5824 5823 5822 5822 5821 5821 5821 5821 5822
5852 5852 5852 5852 5852 5852 5851 5851 5850 5849 5848 5847 5846 5845 5844 5842 5841 5839 5838 5837 5835 5834 5832 5831 5829 5828 5826 5825 5824 5822 5821 5819 5818 5817 5816 5815 5814 5813 5813 5812 5812 5812 5812
5846 5846 5846 5846 5845 5845 5844 5844 5843 5842 5841 5840 5839 5838 5836 5835 5834 5832 5831 5829 5828 5826 5825 5823 5822 5820 5819 5817 5816 5814 5813 5811 5810 5809 5808 5807 5806 5805 5804 5803 5803 5802 5802
5839 5839 5839 5838 5838 5837 5837 5836 5835 5834 5833 5832 5831 5830 5829 5827 5826 5824 5822 5821 5819 5818 5816 5815 5813 5812 5810 5808 5807 5806 5804 5803 5801 5800 5799 5798 5797 5796 5795 5794 5793 5793 5792
5831 5831 5830 5829 5829 5829 5828 5827 5826 5825 5825 5824 5822 5821 5820 5818 5817 5815 5813 5811 5810 5809 5807 5805 5804 5802 5800 5799 5797 5796 5794 5793 5792 5790 5789 5788 5787 5786 5785 5784 5783 5782 5781
5822 5822 5822 5821 5820 5819 5818 5818 5816 5816 5815 5814 5813 5811 5810 5809 5807 5805 5803 5801 5800 5798 5796 5795 5793 5791 5790 5788 5786 5785 5783 5782 5781 5779 5778 5777 5776 5775 5774 5773 5773 5772 5771
5812 5812 5812 5812 5811 5810 5809 5808 5806 5805 5805 5804 5802 5801 5799 5798 5796 5794 5792 5791 5789 5787 5785 5783 5781 5780 5778 5776 5774 5773 5772 5771 5770 5768 5766 5765 5764 5763 5762 5762 5761 5760 5760
5803 5803 5802 5802 5801 5800 5798 5797 5795 5794 5794 5793 5791 5789 5788 5786 5784 5781 5779 5778 5777 5775 5773 5770 5769 5768 5766 5764 5761 5760 5759 5757 5757 5756 5753 5752 5752 5750 5750 5749 5748 5748 5748
5794 5793 5792 5791 5790 5789 5787 5786 5784 5782 5781 5780 5779 5777 5775 5773 5771 5769 5766 5765 5763 5761 5758 5756 5754 5754 5752 5751 5748 5746 5744 5743 5742 5742 5740 5738 5738 5737 5737 5737 5735 5735 5735